Location: Home
(42.5358°N, 72.7383°W)
Time: 17:18:08
(UTC-05:00)

A-11 Canister half - Pass Details

Date: 03 December 2021
Orbit: 1516 x 1684 km, 47.2° (Epoch: 18 January)

Event Time Altitude Azimuth Distance (km) Brightness Sun altitude
Rises 10:37:48 0° 283° (WNW) 4,846 11.3 23.7°
Reaches altitude 10° 10:40:56 10° 286° (WNW) 3,880 10.9 23.8°
Maximum altitude 10:50:56 71° 10° (N) 1,750 9.5 24.3°
Drops below altitude 10° 11:01:06 10° 95° (E) 3,947 11.4 24.6°
Sets 11:04:19 0° 97° (E) 4,933 11.9 24.7°
